#datetime,building,power
2022-01-28T00:01:00,pkn,4.80
2022-01-28T00:03:00,pkn,3.60
2022-01-28T00:05:00,pkn,2.40
2022-01-28T00:07:00,pkn,7.20
2022-01-28T00:09:00,pkn,10.80
2022-01-28T00:11:00,pkn,10.80
2022-01-28T00:13:00,pkn,10.80
2022-01-28T00:14:00,pkn,4.80
2022-01-28T00:16:00,pkn,7.20
2022-01-28T00:18:00,pkn,1.20
2022-01-28T00:20:00,pkn,2.40
2022-01-28T00:22:00,pkn,1.20
2022-01-28T00:24:00,pkn,2.40
2022-01-28T00:26:00,pkn,1.20
2022-01-28T00:28:00,pkn,1.20
2022-01-28T00:30:00,pkn,2.40
2022-01-28T00:32:00,pkn,1.20
2022-01-28T00:34:00,pkn,1.20
2022-01-28T00:36:00,pkn,6.00
2022-01-28T00:38:00,pkn,10.80
2022-01-28T00:39:00,pkn,3.60
2022-01-28T00:41:00,pkn,10.80
2022-01-28T00:42:00,pkn,4.80
2022-01-28T00:44:00,pkn,3.60
2022-01-28T00:46:00,pkn,1.20
2022-01-28T00:48:00,pkn,2.40
2022-01-28T00:50:00,pkn,1.20
2022-01-28T00:52:00,pkn,1.20
2022-01-28T00:54:00,pkn,2.40
2022-01-28T00:56:00,pkn,2.40
2022-01-28T00:58:00,pkn,1.20
2022-01-28T01:00:00,pkn,8.40
2022-01-28T01:01:00,pkn,4.80
2022-01-28T01:02:00,pkn,4.80
2022-01-28T01:04:00,pkn,10.80
2022-01-28T01:06:00,pkn,8.40
2022-01-28T01:08:00,pkn,7.20
2022-01-28T01:10:00,pkn,1.20
2022-01-28T01:12:00,pkn,1.20
2022-01-28T01:13:00,pkn,1.20
2022-01-28T01:15:00,pkn,1.20
2022-01-28T01:16:00,pkn,1.20
2022-01-28T01:18:00,pkn,1.20
2022-01-28T01:20:00,pkn,2.40
2022-01-28T01:22:00,pkn,4.80
2022-01-28T01:24:00,pkn,9.60
2022-01-28T01:25:00,pkn,4.80
2022-01-28T01:26:00,pkn,1.20
2022-01-28T01:27:00,pkn,8.40
2022-01-28T01:28:00,pkn,1.20
2022-01-28T01:29:00,pkn,8.40
2022-01-28T01:30:00,pkn,1.20
2022-01-28T01:31:00,pkn,8.40
2022-01-28T01:32:00,pkn,4.80
2022-01-28T01:33:00,pkn,6.00
2022-01-28T01:35:00,pkn,8.40
2022-01-28T01:37:00,pkn,1.20
2022-01-28T01:38:00,pkn,1.20
2022-01-28T01:40:00,pkn,2.40
2022-01-28T01:42:00,pkn,1.20
2022-01-28T01:44:00,pkn,2.40
2022-01-28T01:46:00,pkn,1.20
2022-01-28T01:48:00,pkn,1.20
2022-01-28T01:49:00,pkn,1.20
2022-01-28T01:51:00,pkn,7.20
2022-01-28T01:53:00,pkn,9.60
2022-01-28T01:55:00,pkn,8.40
2022-01-28T01:57:00,pkn,10.80
2022-01-28T01:59:00,pkn,9.60
2022-01-28T02:01:00,pkn,3.60
2022-01-28T02:03:00,pkn,1.20
2022-01-28T02:04:00,pkn,1.20
2022-01-28T02:06:00,pkn,1.20
2022-01-28T02:09:00,pkn,1.20
2022-01-28T02:11:00,pkn,2.40
2022-01-28T02:13:00,pkn,1.20
2022-01-28T02:15:00,pkn,1.20
2022-01-28T02:17:00,pkn,1.20
2022-01-28T02:19:00,pkn,2.40
2022-01-28T02:21:00,pkn,6.00
2022-01-28T02:23:00,pkn,9.60
2022-01-28T02:24:00,pkn,4.80
2022-01-28T02:26:00,pkn,9.60
2022-01-28T02:27:00,pkn,4.80
2022-01-28T02:28:00,pkn,4.80
2022-01-28T02:30:00,pkn,1.20
2022-01-28T02:32:00,pkn,2.40
2022-01-28T02:34:00,pkn,1.20
2022-01-28T02:36:00,pkn,1.20
2022-01-28T02:38:00,pkn,1.20
2022-01-28T02:40:00,pkn,1.20
2022-01-28T02:41:00,pkn,1.20
2022-01-28T02:43:00,pkn,1.20
2022-01-28T02:45:00,pkn,1.20
2022-01-28T02:47:00,pkn,1.20
2022-01-28T02:49:00,pkn,1.20
2022-01-28T02:50:00,pkn,1.20
2022-01-28T02:52:00,pkn,1.20
2022-01-28T02:54:00,pkn,1.20
2022-01-28T02:56:00,pkn,1.20
2022-01-28T02:58:00,pkn,9.60
2022-01-28T02:59:00,pkn,3.60
2022-01-28T03:01:00,pkn,9.60
2022-01-28T03:02:00,pkn,5.99
2022-01-28T03:04:00,pkn,4.80
2022-01-28T03:05:00,pkn,1.20
2022-01-28T03:07:00,pkn,1.20
2022-01-28T03:09:00,pkn,1.20
2022-01-28T03:10:00,pkn,1.20
2022-01-28T03:12:00,pkn,1.20
2022-01-28T03:14:00,pkn,1.20
2022-01-28T03:16:00,pkn,1.20
2022-01-28T03:18:00,pkn,1.20
2022-01-28T03:19:00,pkn,1.20
2022-01-28T03:21:00,pkn,1.20
2022-01-28T03:23:00,pkn,1.20
2022-01-28T03:25:00,pkn,1.20
2022-01-28T03:27:00,pkn,1.20
2022-01-28T03:29:00,pkn,2.40
2022-01-28T03:31:00,pkn,1.20
2022-01-28T03:33:00,pkn,1.20
2022-01-28T03:34:00,pkn,1.20
2022-01-28T03:36:00,pkn,1.20
2022-01-28T03:38:00,pkn,1.20
2022-01-28T03:40:00,pkn,7.20
2022-01-28T03:41:00,pkn,6.00
2022-01-28T03:43:00,pkn,8.40
2022-01-28T03:45:00,pkn,9.60
2022-01-28T03:46:00,pkn,3.60
2022-01-28T03:48:00,pkn,9.60
2022-01-28T03:50:00,pkn,1.20
2022-01-28T03:52:00,pkn,1.20
2022-01-28T03:54:00,pkn,1.20
2022-01-28T03:56:00,pkn,1.20
2022-01-28T03:58:00,pkn,1.20
2022-01-28T04:00:00,pkn,2.40
2022-01-28T04:02:00,pkn,1.20
2022-01-28T04:04:00,pkn,2.40
2022-01-28T04:07:00,pkn,2.40
2022-01-28T04:09:00,pkn,1.20
2022-01-28T04:11:00,pkn,1.20
2022-01-28T04:12:00,pkn,1.20
2022-01-28T04:14:00,pkn,1.20
2022-01-28T04:16:00,pkn,1.20
2022-01-28T04:18:00,pkn,2.40
2022-01-28T04:20:00,pkn,1.20
2022-01-28T04:21:00,pkn,1.20
2022-01-28T04:24:00,pkn,1.20
2022-01-28T04:25:00,pkn,1.20
2022-01-28T04:27:00,pkn,1.20
2022-01-28T04:28:00,pkn,1.20
2022-01-28T04:31:00,pkn,1.20
2022-01-28T04:33:00,pkn,2.40
2022-01-28T04:36:00,pkn,1.20
2022-01-28T04:37:00,pkn,1.20
2022-01-28T04:39:00,pkn,1.20
2022-01-28T04:41:00,pkn,8.40
2022-01-28T04:43:00,pkn,9.60
2022-01-28T04:44:00,pkn,6.00
2022-01-28T04:46:00,pkn,8.40
2022-01-28T04:48:00,pkn,2.40
2022-01-28T04:50:00,pkn,1.20
2022-01-28T04:52:00,pkn,2.40
2022-01-28T04:54:00,pkn,1.20
2022-01-28T04:57:00,pkn,1.20
2022-01-28T04:58:00,pkn,1.20
2022-01-28T05:00:00,pkn,1.20
2022-01-28T05:01:00,pkn,1.20
2022-01-28T05:03:00,pkn,1.20
2022-01-28T05:05:00,pkn,1.20
2022-01-28T05:07:00,pkn,1.20
2022-01-28T05:09:00,pkn,1.20
2022-01-28T05:11:00,pkn,1.20
2022-01-28T05:13:00,pkn,1.20
2022-01-28T05:14:00,pkn,1.20
2022-01-28T05:16:00,pkn,1.20
2022-01-28T05:18:00,pkn,1.20
2022-01-28T05:19:00,pkn,1.20
2022-01-28T05:21:00,pkn,1.20
2022-01-28T05:23:00,pkn,1.20
2022-01-28T05:24:00,pkn,1.20
2022-01-28T05:26:00,pkn,1.20
2022-01-28T05:28:00,pkn,1.20
2022-01-28T05:30:00,pkn,1.20
2022-01-28T05:31:00,pkn,1.20
2022-01-28T05:33:00,pkn,1.20
2022-01-28T05:35:00,pkn,1.20
2022-01-28T05:37:00,pkn,1.20
2022-01-28T05:39:00,pkn,1.20
2022-01-28T05:40:00,pkn,1.20
2022-01-28T05:42:00,pkn,7.20
2022-01-28T05:44:00,pkn,9.60
2022-01-28T05:45:00,pkn,3.60
2022-01-28T05:47:00,pkn,10.80
2022-01-28T05:48:00,pkn,2.40
2022-01-28T05:50:00,pkn,2.40
2022-01-28T05:52:00,pkn,1.20
2022-01-28T05:54:00,pkn,1.20
2022-01-28T05:56:00,pkn,1.20
2022-01-28T05:58:00,pkn,1.20
2022-01-28T06:00:00,pkn,2.40
2022-01-28T06:02:00,pkn,1.20
2022-01-28T06:04:00,pkn,2.40
2022-01-28T06:06:00,pkn,1.20
2022-01-28T06:07:00,pkn,1.20
2022-01-28T06:09:00,pkn,1.20
2022-01-28T06:11:00,pkn,1.20
2022-01-28T06:13:00,pkn,1.20
2022-01-28T06:16:00,pkn,1.20
2022-01-28T06:17:00,pkn,1.20
2022-01-28T06:19:00,pkn,1.20
2022-01-28T06:21:00,pkn,1.20
2022-01-28T06:24:00,pkn,1.20
2022-01-28T06:25:00,pkn,1.20
2022-01-28T06:27:00,pkn,1.20
2022-01-28T06:30:00,pkn,1.20
2022-01-28T06:32:00,pkn,1.20
2022-01-28T06:34:00,pkn,1.20
2022-01-28T06:35:00,pkn,1.20
2022-01-28T06:37:00,pkn,1.20
2022-01-28T06:38:00,pkn,1.20
2022-01-28T06:40:00,pkn,1.20
2022-01-28T06:42:00,pkn,1.20
2022-01-28T06:45:00,pkn,1.20
2022-01-28T06:47:00,pkn,1.20
2022-01-28T06:48:00,pkn,1.20
2022-01-28T06:50:00,pkn,1.20
2022-01-28T06:53:00,pkn,1.20
2022-01-28T06:55:00,pkn,9.60
2022-01-28T06:57:00,pkn,8.40
2022-01-28T06:59:00,pkn,9.60
2022-01-28T07:00:00,pkn,4.80
2022-01-28T07:01:00,pkn,4.80
2022-01-28T07:03:00,pkn,8.40
2022-01-28T07:05:00,pkn,10.80
2022-01-28T07:07:00,pkn,9.60
2022-01-28T07:09:00,pkn,8.40
2022-01-28T07:11:00,pkn,9.60
2022-01-28T07:12:00,pkn,4.80
2022-01-28T07:14:00,pkn,9.60
2022-01-28T07:16:00,pkn,9.60
2022-01-28T07:18:00,pkn,7.20
2022-01-28T07:20:00,pkn,1.20
2022-01-28T07:22:00,pkn,1.20
2022-01-28T07:25:00,pkn,2.40
2022-01-28T07:27:00,pkn,1.20
2022-01-28T07:28:00,pkn,1.20
2022-01-28T07:30:00,pkn,1.20
2022-01-28T07:32:00,pkn,3.60
2022-01-28T07:34:00,pkn,8.40
2022-01-28T07:35:00,pkn,6.00
2022-01-28T07:37:00,pkn,9.60
2022-01-28T07:38:00,pkn,6.00
2022-01-28T07:39:00,pkn,4.80
2022-01-28T07:40:00,pkn,3.60
2022-01-28T07:42:00,pkn,10.80
2022-01-28T07:44:00,pkn,10.80
2022-01-28T07:46:00,pkn,1.20
2022-01-28T07:48:00,pkn,1.20
2022-01-28T07:50:00,pkn,2.40
2022-01-28T07:52:00,pkn,1.20
2022-01-28T07:54:00,pkn,3.60
2022-01-28T07:56:00,pkn,3.60
2022-01-28T07:58:00,pkn,2.40
2022-01-28T08:00:00,pkn,2.40
2022-01-28T08:02:00,pkn,1.20
2022-01-28T08:03:00,pkn,2.40
2022-01-28T08:05:00,pkn,10.80
2022-01-28T08:07:00,pkn,9.60
2022-01-28T08:09:00,pkn,10.80
2022-01-28T08:11:00,pkn,9.60
2022-01-28T08:13:00,pkn,9.60
2022-01-28T08:14:00,pkn,6.00
2022-01-28T08:16:00,pkn,8.40
2022-01-28T08:18:00,pkn,3.60
2022-01-28T08:20:00,pkn,1.20
2022-01-28T08:22:00,pkn,2.40
2022-01-28T08:23:00,pkn,1.20
2022-01-28T08:25:00,pkn,1.20
2022-01-28T08:27:00,pkn,1.20
2022-01-28T08:28:00,pkn,1.20
2022-01-28T08:29:00,pkn,1.20
2022-01-28T08:31:00,pkn,1.20
2022-01-28T08:33:00,pkn,2.40
2022-01-28T08:35:00,pkn,1.20
2022-01-28T08:37:00,pkn,8.40
2022-01-28T08:39:00,pkn,9.60
2022-01-28T08:41:00,pkn,9.60
2022-01-28T08:43:00,pkn,10.80
2022-01-28T08:45:00,pkn,3.60
2022-01-28T08:47:00,pkn,2.40
2022-01-28T08:49:00,pkn,2.40
2022-01-28T08:51:00,pkn,1.20
2022-01-28T08:53:00,pkn,2.40
2022-01-28T08:55:00,pkn,2.40
2022-01-28T08:57:00,pkn,1.20
2022-01-28T08:59:00,pkn,2.40
2022-01-28T09:01:00,pkn,2.40
2022-01-28T09:03:00,pkn,1.20
2022-01-28T09:05:00,pkn,2.40
2022-01-28T09:07:00,pkn,1.20
2022-01-28T09:08:00,pkn,3.60
2022-01-28T09:09:00,pkn,6.00
2022-01-28T09:11:00,pkn,8.40
2022-01-28T09:12:00,pkn,6.00
2022-01-28T09:14:00,pkn,9.60
2022-01-28T09:16:00,pkn,6.00
2022-01-28T09:19:00,pkn,2.40
2022-01-28T09:21:00,pkn,2.40
2022-01-28T09:23:00,pkn,1.20
2022-01-28T09:25:00,pkn,1.20
2022-01-28T09:27:00,pkn,2.40
2022-01-28T09:29:00,pkn,2.40
2022-01-28T09:30:00,pkn,1.20
2022-01-28T09:33:00,pkn,2.40
2022-01-28T09:35:00,pkn,2.40
2022-01-28T09:37:00,pkn,1.20
2022-01-28T09:38:00,pkn,1.20
2022-01-28T09:40:00,pkn,2.40
2022-01-28T09:41:00,pkn,1.20
2022-01-28T09:43:00,pkn,1.20
2022-01-28T09:45:00,pkn,7.20
2022-01-28T09:47:00,pkn,9.60
2022-01-28T09:49:00,pkn,10.80
2022-01-28T09:51:00,pkn,9.60
2022-01-28T09:53:00,pkn,3.60
2022-01-28T09:55:00,pkn,2.40
2022-01-28T09:57:00,pkn,1.20
2022-01-28T09:58:00,pkn,1.20
2022-01-28T10:00:00,pkn,2.40
2022-01-28T10:02:00,pkn,2.40
2022-01-28T10:04:00,pkn,1.20
2022-01-28T10:06:00,pkn,2.40
2022-01-28T10:07:00,pkn,1.20
2022-01-28T10:09:00,pkn,1.20
2022-01-28T10:11:00,pkn,2.40
2022-01-28T10:13:00,pkn,2.40
2022-01-28T10:14:00,pkn,1.20
2022-01-28T10:16:00,pkn,1.20
2022-01-28T10:17:00,pkn,1.20
2022-01-28T10:18:00,pkn,1.20
2022-01-28T10:20:00,pkn,2.40
2022-01-28T10:22:00,pkn,2.40
2022-01-28T10:23:00,pkn,7.20
2022-01-28T10:25:00,pkn,8.40
2022-01-28T10:27:00,pkn,10.80
2022-01-28T10:29:00,pkn,8.40
2022-01-28T10:30:00,pkn,1.20
2022-01-28T10:32:00,pkn,1.20
2022-01-28T10:33:00,pkn,1.20
2022-01-28T10:35:00,pkn,1.20
2022-01-28T10:37:00,pkn,2.40
2022-01-28T10:38:00,pkn,1.20
2022-01-28T10:40:00,pkn,1.20
2022-01-28T10:41:00,pkn,1.20
2022-01-28T10:43:00,pkn,1.20
2022-01-28T10:45:00,pkn,2.40
2022-01-28T10:46:00,pkn,1.20
2022-01-28T10:48:00,pkn,1.20
2022-01-28T10:50:00,pkn,2.40
2022-01-28T10:53:00,pkn,2.40
2022-01-28T10:55:00,pkn,1.20
2022-01-28T10:57:00,pkn,2.40
2022-01-28T10:59:00,pkn,1.20
2022-01-28T11:01:00,pkn,2.40
2022-01-28T11:03:00,pkn,1.20
2022-01-28T11:05:00,pkn,2.40
2022-01-28T11:07:00,pkn,3.60
2022-01-28T11:09:00,pkn,9.60
2022-01-28T11:11:00,pkn,10.80
2022-01-28T11:13:00,pkn,8.40
2022-01-28T11:14:00,pkn,3.60
2022-01-28T11:15:00,pkn,2.40
2022-01-28T11:17:00,pkn,6.00
2022-01-28T11:18:00,pkn,3.60
2022-01-28T11:20:00,pkn,4.80
2022-01-28T11:21:00,pkn,1.20
2022-01-28T11:23:00,pkn,3.60
2022-01-28T11:25:00,pkn,3.60
2022-01-28T11:26:00,pkn,1.20
2022-01-28T11:28:00,pkn,2.40
2022-01-28T11:30:00,pkn,2.40
2022-01-28T11:32:00,pkn,1.20
2022-01-28T11:34:00,pkn,2.40
2022-01-28T11:36:00,pkn,7.20
2022-01-28T11:37:00,pkn,4.80
2022-01-28T11:38:00,pkn,1.20
2022-01-28T11:39:00,pkn,7.20
2022-01-28T11:40:00,pkn,2.40
2022-01-28T11:41:00,pkn,8.40
2022-01-28T11:42:00,pkn,6.00
2022-01-28T11:43:00,pkn,4.80
2022-01-28T11:45:00,pkn,9.60
2022-01-28T11:46:00,pkn,6.00
2022-01-28T11:48:00,pkn,3.60
2022-01-28T11:50:00,pkn,2.40
2022-01-28T11:52:00,pkn,1.20
2022-01-28T11:53:00,pkn,1.20
2022-01-28T11:55:00,pkn,1.20
2022-01-28T11:57:00,pkn,2.40
2022-01-28T11:59:00,pkn,1.20
2022-01-28T12:01:00,pkn,2.40
2022-01-28T12:04:00,pkn,2.40
2022-01-28T12:06:00,pkn,1.20
2022-01-28T12:07:00,pkn,1.20
2022-01-28T12:09:00,pkn,2.40
2022-01-28T12:11:00,pkn,1.20
2022-01-28T12:12:00,pkn,1.20
2022-01-28T12:14:00,pkn,1.20
2022-01-28T12:16:00,pkn,2.40
2022-01-28T12:17:00,pkn,1.20
2022-01-28T12:19:00,pkn,1.20
2022-01-28T12:20:00,pkn,1.20
2022-01-28T12:22:00,pkn,2.40
2022-01-28T12:24:00,pkn,2.40
2022-01-28T12:26:00,pkn,1.20
2022-01-28T12:27:00,pkn,1.20
2022-01-28T12:28:00,pkn,1.20
2022-01-28T12:30:00,pkn,8.40
2022-01-28T12:32:00,pkn,10.80
2022-01-28T12:33:00,pkn,4.80
2022-01-28T12:35:00,pkn,9.60
2022-01-28T12:37:00,pkn,9.60
2022-01-28T12:39:00,pkn,9.60
2022-01-28T12:41:00,pkn,6.00
2022-01-28T12:43:00,pkn,2.40
2022-01-28T12:44:00,pkn,1.20
2022-01-28T12:45:00,pkn,1.20
2022-01-28T12:48:00,pkn,2.40
2022-01-28T12:50:00,pkn,2.40
2022-01-28T12:51:00,pkn,1.20
2022-01-28T12:53:00,pkn,1.20
2022-01-28T12:54:00,pkn,1.20
2022-01-28T12:56:00,pkn,2.40
2022-01-28T12:58:00,pkn,2.40
2022-01-28T13:00:00,pkn,4.80
2022-01-28T13:02:00,pkn,3.60
2022-01-28T13:04:00,pkn,1.20
2022-01-28T13:06:00,pkn,2.40
2022-01-28T13:07:00,pkn,1.20
2022-01-28T13:09:00,pkn,2.40
2022-01-28T13:12:00,pkn,2.40
2022-01-28T13:14:00,pkn,2.40
2022-01-28T13:16:00,pkn,1.20
2022-01-28T13:17:00,pkn,1.20
2022-01-28T13:19:00,pkn,2.40
2022-01-28T13:21:00,pkn,1.20
2022-01-28T13:23:00,pkn,2.40
2022-01-28T13:25:00,pkn,6.00
2022-01-28T13:27:00,pkn,8.40
2022-01-28T13:28:00,pkn,8.40
2022-01-28T13:30:00,pkn,10.80
2022-01-28T13:32:00,pkn,10.80
2022-01-28T13:34:00,pkn,3.60
2022-01-28T13:36:00,pkn,2.40
2022-01-28T13:38:00,pkn,2.40
2022-01-28T13:39:00,pkn,1.20
2022-01-28T13:42:00,pkn,2.40
2022-01-28T13:44:00,pkn,2.40
2022-01-28T13:45:00,pkn,1.20
2022-01-28T13:47:00,pkn,2.40
2022-01-28T13:49:00,pkn,2.40
2022-01-28T13:51:00,pkn,2.40
2022-01-28T13:52:00,pkn,1.20
2022-01-28T13:54:00,pkn,2.40
2022-01-28T13:55:00,pkn,1.20
2022-01-28T13:57:00,pkn,1.20
2022-01-28T13:58:00,pkn,1.20
2022-01-28T14:00:00,pkn,1.20
2022-01-28T14:02:00,pkn,2.40
2022-01-28T14:03:00,pkn,1.20
2022-01-28T14:05:00,pkn,1.20
2022-01-28T14:07:00,pkn,2.40
2022-01-28T14:09:00,pkn,1.20
2022-01-28T14:10:00,pkn,1.20
2022-01-28T14:12:00,pkn,2.40
2022-01-28T14:15:00,pkn,2.40
2022-01-28T14:17:00,pkn,2.40
2022-01-28T14:19:00,pkn,2.40
2022-01-28T14:20:00,pkn,4.80
2022-01-28T14:21:00,pkn,2.40
2022-01-28T14:22:00,pkn,8.40
2022-01-28T14:23:00,pkn,4.80
2022-01-28T14:25:00,pkn,10.80
2022-01-28T14:27:00,pkn,6.00
2022-01-28T14:29:00,pkn,1.20
2022-01-28T14:31:00,pkn,2.40
2022-01-28T14:33:00,pkn,2.40
2022-01-28T14:35:00,pkn,1.20
2022-01-28T14:37:00,pkn,2.40
2022-01-28T14:39:00,pkn,2.40
2022-01-28T14:41:00,pkn,2.40
2022-01-28T14:42:00,pkn,1.20
2022-01-28T14:45:00,pkn,2.40
2022-01-28T14:47:00,pkn,2.40
2022-01-28T14:48:00,pkn,1.20
2022-01-28T14:50:00,pkn,3.60
2022-01-28T14:52:00,pkn,10.80
2022-01-28T14:54:00,pkn,10.80
2022-01-28T14:55:00,pkn,3.60
2022-01-28T14:57:00,pkn,10.80
2022-01-28T14:58:00,pkn,4.80
2022-01-28T15:00:00,pkn,10.80
2022-01-28T15:02:00,pkn,9.60
2022-01-28T15:04:00,pkn,9.60
2022-01-28T15:06:00,pkn,10.80
2022-01-28T15:08:00,pkn,10.80
2022-01-28T15:09:00,pkn,4.80
2022-01-28T15:11:00,pkn,10.80
2022-01-28T15:13:00,pkn,8.40
2022-01-28T15:14:00,pkn,6.00
2022-01-28T15:16:00,pkn,10.80
2022-01-28T15:17:00,pkn,4.80
2022-01-28T15:19:00,pkn,9.60
2022-01-28T15:21:00,pkn,8.40
2022-01-28T15:22:00,pkn,6.00
2022-01-28T15:24:00,pkn,9.60
2022-01-28T15:25:00,pkn,4.80
2022-01-28T15:27:00,pkn,9.61
2022-01-28T15:29:00,pkn,9.59
2022-01-28T15:31:00,pkn,10.80
2022-01-28T15:32:00,pkn,3.60
2022-01-28T15:34:00,pkn,10.80
2022-01-28T15:35:00,pkn,4.80
2022-01-28T15:36:00,pkn,4.80
2022-01-28T15:38:00,pkn,9.60
2022-01-28T15:40:00,pkn,10.80
2022-01-28T15:42:00,pkn,9.60
2022-01-28T15:44:00,pkn,10.80
2022-01-28T15:45:00,pkn,3.60
2022-01-28T15:47:00,pkn,10.80
2022-01-28T15:49:00,pkn,8.40
2022-01-28T15:51:00,pkn,10.80
2022-01-28T15:53:00,pkn,9.60
2022-01-28T15:55:00,pkn,10.80
2022-01-28T15:56:00,pkn,3.60
2022-01-28T15:58:00,pkn,8.40
2022-01-28T16:00:00,pkn,1.20
2022-01-28T16:02:00,pkn,2.40
2022-01-28T16:04:00,pkn,1.20
2022-01-28T16:05:00,pkn,1.20
2022-01-28T16:07:00,pkn,2.40
2022-01-28T16:09:00,pkn,1.20
2022-01-28T16:10:00,pkn,1.20
2022-01-28T16:12:00,pkn,9.60
2022-01-28T16:13:00,pkn,6.00
2022-01-28T16:14:00,pkn,4.80
2022-01-28T16:16:00,pkn,10.80
2022-01-28T16:18:00,pkn,8.40
2022-01-28T16:20:00,pkn,12.00
2022-01-28T16:21:00,pkn,7.20
2022-01-28T16:23:00,pkn,15.60
2022-01-28T16:25:00,pkn,9.60
2022-01-28T16:27:00,pkn,3.60
2022-01-28T16:29:00,pkn,6.00
2022-01-28T16:30:00,pkn,2.40
2022-01-28T16:32:00,pkn,1.20
2022-01-28T16:34:00,pkn,2.40
2022-01-28T16:36:00,pkn,3.60
2022-01-28T16:38:00,pkn,9.60
2022-01-28T16:39:00,pkn,6.00
2022-01-28T16:41:00,pkn,9.60
2022-01-28T16:43:00,pkn,10.80
2022-01-28T16:45:00,pkn,10.80
2022-01-28T16:47:00,pkn,12.00
2022-01-28T16:49:00,pkn,4.80
2022-01-28T16:50:00,pkn,1.20
2022-01-28T16:52:00,pkn,4.80
2022-01-28T16:54:00,pkn,8.40
2022-01-28T16:55:00,pkn,2.40
2022-01-28T16:56:00,pkn,3.60
2022-01-28T16:58:00,pkn,8.40
2022-01-28T17:00:00,pkn,10.80
2022-01-28T17:01:00,pkn,7.20
2022-01-28T17:03:00,pkn,9.60
2022-01-28T17:04:00,pkn,6.00
2022-01-28T17:06:00,pkn,10.80
2022-01-28T17:08:00,pkn,10.80
2022-01-28T17:10:00,pkn,10.80
2022-01-28T17:12:00,pkn,12.00
2022-01-28T17:14:00,pkn,9.60
2022-01-28T17:16:00,pkn,10.80
2022-01-28T17:18:00,pkn,10.80
2022-01-28T17:20:00,pkn,9.60
2022-01-28T17:22:00,pkn,12.00
2022-01-28T17:23:00,pkn,4.80
2022-01-28T17:25:00,pkn,9.60
2022-01-28T17:27:00,pkn,2.40
2022-01-28T17:29:00,pkn,2.40
2022-01-28T17:31:00,pkn,2.40
2022-01-28T17:33:00,pkn,2.40
2022-01-28T17:35:00,pkn,2.40
2022-01-28T17:37:00,pkn,7.20
2022-01-28T17:39:00,pkn,10.80
2022-01-28T17:40:00,pkn,6.00
2022-01-28T17:42:00,pkn,10.80
2022-01-28T17:44:00,pkn,9.60
2022-01-28T17:46:00,pkn,10.80
2022-01-28T17:47:00,pkn,4.80
2022-01-28T17:49:00,pkn,3.60
2022-01-28T17:50:00,pkn,1.20
2022-01-28T17:52:00,pkn,2.40
2022-01-28T17:54:00,pkn,2.40
2022-01-28T17:56:00,pkn,2.40
2022-01-28T17:57:00,pkn,1.20
2022-01-28T17:59:00,pkn,2.40
2022-01-28T18:01:00,pkn,2.40
2022-01-28T18:02:00,pkn,4.80
2022-01-28T18:04:00,pkn,9.60
2022-01-28T18:06:00,pkn,10.80
2022-01-28T18:07:00,pkn,4.80
2022-01-28T18:09:00,pkn,12.00
2022-01-28T18:10:00,pkn,1.20
2022-01-28T18:11:00,pkn,9.60
2022-01-28T18:12:00,pkn,4.80
2022-01-28T18:14:00,pkn,3.60
2022-01-28T18:16:00,pkn,2.40
2022-01-28T18:18:00,pkn,2.40
2022-01-28T18:20:00,pkn,2.40
2022-01-28T18:22:00,pkn,3.60
2022-01-28T18:24:00,pkn,2.40
2022-01-28T18:26:00,pkn,4.80
2022-01-28T18:28:00,pkn,4.80
2022-01-28T18:29:00,pkn,2.40
2022-01-28T18:30:00,pkn,3.60
2022-01-28T18:32:00,pkn,12.00
2022-01-28T18:34:00,pkn,10.80
2022-01-28T18:35:00,pkn,7.20
2022-01-28T18:37:00,pkn,12.00
2022-01-28T18:39:00,pkn,14.40
2022-01-28T18:40:00,pkn,4.80
2022-01-28T18:42:00,pkn,6.00
2022-01-28T18:43:00,pkn,2.40
2022-01-28T18:45:00,pkn,3.60
2022-01-28T18:47:00,pkn,2.40
2022-01-28T18:49:00,pkn,2.40
2022-01-28T18:50:00,pkn,1.20
2022-01-28T18:52:00,pkn,2.40
2022-01-28T18:54:00,pkn,2.40
2022-01-28T18:56:00,pkn,1.20
2022-01-28T18:57:00,pkn,1.20
2022-01-28T18:59:00,pkn,8.40
2022-01-28T19:01:00,pkn,10.80
2022-01-28T19:02:00,pkn,3.60
2022-01-28T19:04:00,pkn,10.80
2022-01-28T19:05:00,pkn,4.80
2022-01-28T19:07:00,pkn,4.80
2022-01-28T19:09:00,pkn,1.20
2022-01-28T19:11:00,pkn,2.40
2022-01-28T19:13:00,pkn,2.40
2022-01-28T19:14:00,pkn,1.20
2022-01-28T19:16:00,pkn,1.20
2022-01-28T19:18:00,pkn,2.40
2022-01-28T19:20:00,pkn,2.40
2022-01-28T19:22:00,pkn,2.40
2022-01-28T19:24:00,pkn,9.60
2022-01-28T19:26:00,pkn,9.60
2022-01-28T19:28:00,pkn,10.80
2022-01-28T19:30:00,pkn,10.80
2022-01-28T19:32:00,pkn,9.60
2022-01-28T19:33:00,pkn,4.80
2022-01-28T19:35:00,pkn,3.60
2022-01-28T19:37:00,pkn,2.40
2022-01-28T19:38:00,pkn,1.20
2022-01-28T19:40:00,pkn,1.20
2022-01-28T19:42:00,pkn,2.40
2022-01-28T19:43:00,pkn,1.20
2022-01-28T19:45:00,pkn,2.40
2022-01-28T19:47:00,pkn,2.40
2022-01-28T19:50:00,pkn,2.40
2022-01-28T19:52:00,pkn,3.60
2022-01-28T19:53:00,pkn,4.80
2022-01-28T19:55:00,pkn,10.80
2022-01-28T19:56:00,pkn,6.00
2022-01-28T19:58:00,pkn,10.80
2022-01-28T20:00:00,pkn,10.80
2022-01-28T20:01:00,pkn,3.60
2022-01-28T20:02:00,pkn,2.40
2022-01-28T20:03:00,pkn,2.40
2022-01-28T20:04:00,pkn,2.40
2022-01-28T20:05:00,pkn,1.20
2022-01-28T20:07:00,pkn,2.40
2022-01-28T20:08:00,pkn,1.20
2022-01-28T20:10:00,pkn,3.60
2022-01-28T20:12:00,pkn,2.40
2022-01-28T20:14:00,pkn,2.40
2022-01-28T20:15:00,pkn,1.20
2022-01-28T20:17:00,pkn,2.40
2022-01-28T20:18:00,pkn,1.20
2022-01-28T20:20:00,pkn,2.40
2022-01-28T20:21:00,pkn,1.20
2022-01-28T20:23:00,pkn,2.40
2022-01-28T20:25:00,pkn,9.60
2022-01-28T20:27:00,pkn,10.80
2022-01-28T20:29:00,pkn,9.60
2022-01-28T20:31:00,pkn,10.80
2022-01-28T20:32:00,pkn,6.00
2022-01-28T20:34:00,pkn,6.00
2022-01-28T20:36:00,pkn,2.40
2022-01-28T20:38:00,pkn,2.40
2022-01-28T20:40:00,pkn,2.40
2022-01-28T20:41:00,pkn,1.20
2022-01-28T20:43:00,pkn,2.40
2022-01-28T20:45:00,pkn,2.40
2022-01-28T20:47:00,pkn,2.40
2022-01-28T20:48:00,pkn,1.20
2022-01-28T20:49:00,pkn,1.20
2022-01-28T20:51:00,pkn,1.20
2022-01-28T20:52:00,pkn,2.40
2022-01-28T20:54:00,pkn,1.20
2022-01-28T20:55:00,pkn,1.20
2022-01-28T20:57:00,pkn,2.40
2022-01-28T20:59:00,pkn,4.80
2022-01-28T21:00:00,pkn,3.60
2022-01-28T21:02:00,pkn,10.80
2022-01-28T21:04:00,pkn,10.80
2022-01-28T21:05:00,pkn,6.00
2022-01-28T21:07:00,pkn,6.00
2022-01-28T21:09:00,pkn,2.40
2022-01-28T21:11:00,pkn,2.40
2022-01-28T21:13:00,pkn,3.60
2022-01-28T21:15:00,pkn,4.80
2022-01-28T21:17:00,pkn,2.40
2022-01-28T21:19:00,pkn,2.40
2022-01-28T21:20:00,pkn,1.20
2022-01-28T21:22:00,pkn,2.40
2022-01-28T21:24:00,pkn,2.40
2022-01-28T21:25:00,pkn,1.20
2022-01-28T21:27:00,pkn,2.40
2022-01-28T21:29:00,pkn,2.40
2022-01-28T21:31:00,pkn,2.40
2022-01-28T21:33:00,pkn,6.00
2022-01-28T21:35:00,pkn,10.80
2022-01-28T21:37:00,pkn,10.80
2022-01-28T21:38:00,pkn,4.80
2022-01-28T21:40:00,pkn,9.60
2022-01-28T21:42:00,pkn,6.00
2022-01-28T21:44:00,pkn,2.40
2022-01-28T21:46:00,pkn,2.40
2022-01-28T21:48:00,pkn,2.40
2022-01-28T21:50:00,pkn,2.40
2022-01-28T21:52:00,pkn,1.20
2022-01-28T21:54:00,pkn,2.40
2022-01-28T21:56:00,pkn,2.40
2022-01-28T21:58:00,pkn,2.40
2022-01-28T22:01:00,pkn,2.40
2022-01-28T22:03:00,pkn,2.40
2022-01-28T22:04:00,pkn,1.20
2022-01-28T22:06:00,pkn,2.40
2022-01-28T22:08:00,pkn,2.40
2022-01-28T22:10:00,pkn,2.40
2022-01-28T22:12:00,pkn,2.40
2022-01-28T22:14:00,pkn,8.40
2022-01-28T22:15:00,pkn,6.00
2022-01-28T22:17:00,pkn,10.80
2022-01-28T22:19:00,pkn,10.80
2022-01-28T22:21:00,pkn,2.40
2022-01-28T22:23:00,pkn,1.20
2022-01-28T22:25:00,pkn,2.40
2022-01-28T22:27:00,pkn,2.40
2022-01-28T22:29:00,pkn,2.40
2022-01-28T22:31:00,pkn,2.40
2022-01-28T22:33:00,pkn,2.40
2022-01-28T22:35:00,pkn,1.20
2022-01-28T22:36:00,pkn,1.20
2022-01-28T22:38:00,pkn,2.40
2022-01-28T22:39:00,pkn,2.40
2022-01-28T22:41:00,pkn,3.60
2022-01-28T22:43:00,pkn,7.20
2022-01-28T22:45:00,pkn,7.20
2022-01-28T22:46:00,pkn,3.60
2022-01-28T22:48:00,pkn,6.00
2022-01-28T22:50:00,pkn,4.80
2022-01-28T22:52:00,pkn,10.80
2022-01-28T22:53:00,pkn,6.00
2022-01-28T22:55:00,pkn,9.60
2022-01-28T22:57:00,pkn,10.80
2022-01-28T22:58:00,pkn,2.40
2022-01-28T23:00:00,pkn,2.40
2022-01-28T23:02:00,pkn,2.40
2022-01-28T23:04:00,pkn,3.60
2022-01-28T23:06:00,pkn,2.40
2022-01-28T23:07:00,pkn,2.40
2022-01-28T23:09:00,pkn,2.40
2022-01-28T23:10:00,pkn,2.40
2022-01-28T23:12:00,pkn,2.40
2022-01-28T23:14:00,pkn,3.60
2022-01-28T23:16:00,pkn,2.40
2022-01-28T23:17:00,pkn,2.40
2022-01-28T23:19:00,pkn,6.00
2022-01-28T23:21:00,pkn,3.60
2022-01-28T23:23:00,pkn,3.60
2022-01-28T23:24:00,pkn,2.40
2022-01-28T23:26:00,pkn,6.00
2022-01-28T23:28:00,pkn,15.60
2022-01-28T23:30:00,pkn,14.40
2022-01-28T23:31:00,pkn,3.60
2022-01-28T23:32:00,pkn,6.00
2022-01-28T23:33:00,pkn,8.40
2022-01-28T23:34:00,pkn,4.80
2022-01-28T23:35:00,pkn,8.40
2022-01-28T23:36:00,pkn,4.80
2022-01-28T23:37:00,pkn,1.20
2022-01-28T23:39:00,pkn,2.40
2022-01-28T23:41:00,pkn,2.40
2022-01-28T23:43:00,pkn,2.40
2022-01-28T23:45:00,pkn,2.40
2022-01-28T23:46:00,pkn,1.20
2022-01-28T23:48:00,pkn,2.40
2022-01-28T23:50:00,pkn,2.40
2022-01-28T23:52:00,pkn,1.20
2022-01-28T23:53:00,pkn,1.20
2022-01-28T23:55:00,pkn,2.40
2022-01-28T23:57:00,pkn,2.40
2022-01-28T23:58:00,pkn,1.20
2022-01-28T23:59:00,pkn,1.20
